Theta_e
327 327 324 322 332 336 337 337 337 338 337 336 336 333 332 332 328 330 334 337 339 339 340 339 337 334 332 331 329 327 324 322 316 309 314 329 335 335 336 336 336 335 335 334 333 333 326 323 330 333 335 336 337 338 338 339 339 339 339 340 339 339 339 339 338 333 326 319 316 316 315 314 314 315 316 317 317 317 318 318 319 318 318 321 322
325 328 327 323 329 333 335 335 335 337 335 336 338 335 333 331 327 328 331 336 339 339 340 339 337 334 333 332 331 328 325 324 320 312 308 319 332 335 335 336 336 336 335 334 333 333 328 323 329 334 336 336 337 338 338 339 339 339 340 340 339 339 339 338 337 330 320 317 316 316 315 314 315 316 317 317 317 318 318 319 319 319 319 319 319
325 332 333 326 327 331 332 331 331 334 335 336 338 336 334 331 326 325 328 335 339 339 339 339 337 335 334 333 332 329 327 325 322 317 310 310 320 330 334 335 336 336 335 335 334 332 329 324 328 335 336 337 337 338 338 338 338 339 339 339 339 339 339 338 335 325 318 317 316 316 315 315 316 317 317 317 317 318 318 319 319 319 319 318 319
326 335 337 329 325 327 329 329 329 333 335 336 338 337 334 330 327 324 327 335 339 339 339 339 337 335 335 334 333 330 328 327 324 320 316 312 310 317 326 333 335 335 335 335 334 332 329 326 330 335 336 337 337 338 338 338 339 339 339 338 339 339 338 337 331 322 318 316 317 319 317 316 316 317 317 317 317 317 318 319 319 319 319 319 319
327 334 337 333 329 328 327 330 329 331 335 335 338 337 334 330 327 324 326 335 339 339 339 339 338 335 335 334 334 332 330 328 325 322 320 317 312 308 312 324 332 334 334 335 335 333 328 326 331 335 336 337 337 338 338 338 339 339 338 338 338 338 338 334 329 322 319 317 320 324 322 319 318 318 318 317 317 317 318 318 319 319 319 320 320
330 335 337 333 333 330 325 328 329 330 333 334 337 336 333 330 327 325 325 333 337 338 339 339 338 336 335 335 334 333 332 330 327 324 323 321 318 313 307 312 324 332 334 334 334 332 326 325 331 334 336 336 337 337 337 338 338 339 339 339 338 337 337 333 328 323 319 319 324 327 327 325 323 322 321 319 318 317 317 317 318 319 319 320 320
335 337 338 333 330 328 323 325 327 329 330 333 336 334 332 329 328 325 325 331 335 336 336 338 339 336 335 335 335 334 333 332 329 326 325 324 321 319 313 308 312 325 333 333 333 333 327 323 328 332 335 336 336 337 337 338 338 339 339 339 338 337 336 332 328 324 320 323 327 328 328 328 328 327 327 324 323 323 322 320 318 317 318 318 319
337 337 338 336 332 328 324 322 323 325 327 331 334 334 332 329 328 326 325 328 333 335 334 337 339 337 335 335 335 335 334 333 330 327 326 325 323 321 318 313 308 314 326 332 332 332 329 324 325 328 332 335 335 336 337 338 338 338 338 338 338 337 335 330 328 326 322 324 328 328 328 329 329 329 330 330 329 329 329 327 324 322 320 319 319
337 337 337 337 334 330 326 323 322 321 322 324 326 328 330 330 328 326 325 326 331 335 333 336 339 337 336 336 335 334 335 334 332 330 328 326 325 322 319 316 312 308 315 327 331 331 330 326 323 325 329 334 335 335 337 337 338 338 338 338 337 337 333 330 328 327 326 325 326 328 330 330 330 330 331 332 332 331 330 330 330 329 328 326 325
337 337 337 336 334 330 328 326 323 322 322 322 320 320 322 325 328 326 325 325 329 334 334 336 338 337 336 336 336 335 335 334 333 331 329 327 324 321 319 316 313 310 308 317 326 328 328 327 323 323 326 332 335 335 336 336 337 337 337 338 337 336 332 330 329 327 328 328 328 329 330 331 331 332 332 333 333 333 332 331 331 331 331 331 330
337 337 337 336 334 330 328 327 325 325 328 327 324 322 318 318 324 326 325 325 329 332 333 337 338 337 337 337 336 336 335 334 335 333 331 328 323 319 317 314 311 311 308 309 317 323 325 327 323 322 325 330 334 335 336 336 335 336 336 337 337 335 332 330 330 329 329 330 330 331 331 332 332 333 333 333 333 333 333 333 332 332 332 332 331
336 336 336 334 332 329 327 328 326 325 330 330 329 328 324 317 318 324 326 325 330 330 329 336 339 337 338 337 336 336 336 335 335 334 332 328 322 318 316 313 312 310 310 307 309 318 323 326 325 321 325 328 333 334 334 335 333 335 335 336 336 335 332 330 331 330 331 332 333 333 332 333 333 333 333 334 334 334 333 333 333 333 333 332 332
336 336 334 332 332 331 328 330 328 326 329 331 330 329 328 325 317 318 325 325 331 330 329 336 339 338 338 337 337 336 335 335 335 335 333 328 322 317 315 313 313 310 310 309 306 315 319 323 326 322 325 328 332 334 333 333 333 334 335 336 336 335 332 331 332 332 333 334 334 334 334 334 334 334 334 334 334 334 334 333 333 333 333 332 332
337 335 331 332 335 334 331 331 329 329 332 331 330 329 328 327 317 314 323 327 332 333 333 338 338 338 338 337 337 336 336 335 336 336 333 328 322 318 315 313 314 311 309 310 306 314 320 323 327 324 325 329 330 333 332 332 332 333 334 334 335 334 333 332 333 333 333 334 335 336 335 336 335 335 334 335 335 335 335 334 333 333 333 333 332
336 333 330 334 337 335 333 332 331 332 335 333 331 328 321 318 312 313 322 328 333 335 337 339 338 338 338 338 337 336 336 336 335 336 334 328 323 319 316 314 315 312 309 309 307 311 318 323 327 325 325 328 329 331 331 331 331 332 332 332 333 332 332 333 333 333 333 334 336 336 336 336 335 335 335 335 335 335 335 335 334 333 332 332 332
334 330 331 336 336 336 334 333 334 334 335 331 324 317 312 309 309 315 323 331 334 336 338 338 338 338 337 337 337 337 336 336 335 335 334 328 324 321 317 315 316 314 309 309 308 308 311 319 326 327 327 328 328 329 330 330 331 331 331 331 331 331 331 333 334 333 333 334 335 336 335 336 335 335 336 335 335 335 335 335 334 333 332 332 332
332 331 335 336 336 337 335 334 335 336 332 323 313 308 307 307 312 320 327 333 335 337 339 339 338 337 337 337 337 337 337 336 335 335 334 329 324 322 318 316 316 315 310 308 308 307 307 313 321 325 327 328 329 329 330 330 330 331 332 332 332 332 332 332 333 334 334 334 335 335 335 335 335 335 336 336 335 335 334 333 333 333 333 332 332
330 333 337 336 336 336 336 335 335 334 325 312 308 307 308 312 318 325 330 334 336 338 340 339 338 337 337 337 338 337 337 336 335 334 334 330 326 323 319 316 316 316 312 309 307 307 306 308 314 318 323 327 329 329 329 330 330 330 331 331 332 332 332 332 333 334 334 334 334 334 335 335 334 334 335 335 334 334 334 333 333 333 333 333 332
331 333 336 336 336 336 336 336 334 331 318 308 308 307 312 319 324 328 332 336 337 338 340 339 338 338 337 337 338 338 337 336 335 334 333 330 327 325 321 317 317 317 314 311 308 307 306 305 307 310 317 323 325 328 329 329 329 330 330 330 331 331 332 332 333 333 334 334 333 334 334 334 334 334 334 334 333 332 333 333 333 333 333 333 332
332 333 335 336 337 336 336 335 333 328 314 310 314 314 318 323 328 331 334 336 338 339 339 339 338 338 338 338 338 338 338 337 336 334 333 331 328 327 323 318 317 319 316 313 310 307 306 306 305 306 311 314 318 322 326 328 328 328 328 329 329 329 330 331 331 332 333 333 333 333 334 333 333 333 332 333 332 332 332 333 333 333 333 333 333
333 333 335 336 337 337 337 335 333 329 316 313 322 324 323 326 329 332 334 336 337 338 339 338 338 338 338 338 337 338 338 337 336 335 334 332 330 328 325 320 317 319 319 316 312 309 307 307 306 306 307 309 315 319 322 324 324 325 326 326 327 327 327 327 328 329 330 331 331 332 332 332 332 331 331 331 330 331 332 332 333 333 333 333 333
333 334 335 335 337 337 338 336 333 331 320 317 326 327 326 329 330 332 335 336 337 337 338 338 337 338 337 337 337 338 338 337 337 336 335 333 331 329 326 322 318 318 321 319 316 313 310 308 307 307 306 307 313 317 319 319 320 320 321 322 323 323 323 324 325 325 325 325 325 326 328 329 329 329 328 328 329 330 331 332 332 332 332 332 332
333 334 335 335 336 336 338 336 334 333 325 320 325 327 328 330 330 333 334 335 336 336 336 336 337 337 336 336 337 337 337 337 337 336 336 334 331 330 327 324 320 317 320 322 320 318 315 312 310 308 307 306 308 312 316 318 318 318 318 318 319 319 319 320 321 322 322 321 319 319 321 324 326 326 326 327 328 329 331 331 331 332 332 332 332
333 334 334 334 336 337 338 337 334 335 331 324 322 324 325 324 328 333 334 335 335 335 335 335 336 335 335 335 336 336 336 336 337 336 336 335 333 331 328 325 322 318 318 323 323 321 320 318 316 313 311 309 307 307 310 312 314 314 315 315 315 314 314 315 316 318 319 318 316 315 316 318 320 321 322 324 327 329 329 330 330 330 331 331 331
334 333 333 334 336 336 336 336 335 335 334 330 324 323 321 319 325 331 333 334 334 334 334 334 334 332 333 335 334 335 335 336 337 337 337 336 334 332 329 326 324 320 317 320 324 324 323 322 322 320 318 316 313 310 308 309 309 309 310 311 311 311 312 312 313 314 315 315 315 314 314 314 314 315 315 317 321 326 327 328 329 329 329 329 329
335 334 334 334 334 335 336 336 335 335 335 334 331 328 325 321 324 327 328 330 331 331 331 331 331 330 331 332 333 333 335 336 337 338 338 336 335 334 331 327 325 322 317 317 322 324 324 324 324 323 323 322 320 318 315 314 314 313 312 311 311 310 311 311 312 313 313 314 314 314 314 313 313 313 313 313 314 320 325 327 327 328 328 329 329
336 334 334 333 331 333 335 336 335 335 335 335 334 333 331 328 326 327 326 327 328 328 328 328 329 329 329 330 331 331 332 334 336 337 338 336 335 333 332 329 326 324 319 316 320 323 323 323 324 323 323 323 323 322 321 320 319 319 318 317 315 314 313 312 312 313 313 314 314 314 315 315 314 314 314 313 312 314 318 323 326 326 327 328 328
336 333 334 331 328 332 334 334 335 334 334 335 335 334 333 331 331 330 329 329 329 328 328 326 328 328 328 330 330 329 329 331 332 334 336 335 334 333 332 329 326 325 321 316 317 321 323 322 323 323 324 324 324 324 323 323 322 321 321 321 320 319 317 316 315 315 315 314 315 315 316 316 317 317 315 314 312 311 312 315 319 323 325 326 326
336 333 335 332 329 334 335 332 333 334 335 335 334 334 333 333 332 332 331 331 330 330 329 326 325 326 326 329 329 328 328 327 328 330 330 329 330 331 331 329 326 325 323 317 315 318 322 322 323 325 326 326 326 325 324 323 323 323 322 322 322 321 321 320 320 318 318 317 316 316 316 317 318 319 319 317 316 314 313 312 313 316 319 321 321
336 335 335 333 331 335 337 332 329 332 335 335 335 334 334 334 333 332 332 332 331 331 330 327 325 326 326 327 327 327 327 326 327 329 327 324 325 327 328 327 326 325 323 319 315 316 320 322 324 327 328 328 328 327 327 325 325 324 324 323 323 323 323 323 323 322 321 320 319 319 318 318 319 320 321 321 321 319 318 316 315 315 315 316 315
336 336 335 335 333 334 337 334 329 330 333 334 335 335 335 334 333 333 332 332 332 332 332 329 327 327 326 326 326 324 325 326 326 327 326 325 326 327 326 326 326 325 324 321 317 315 317 322 326 328 328 329 330 329 329 329 328 328 327 326 326 326 326 326 325 324 323 322 321 320 320 320 320 321 321 322 323 323 323 322 322 321 320 319 319
335 335 334 334 335 335 335 334 331 331 332 332 333 335 335 334 333 333 333 332 332 332 331 328 325 325 325 326 325 321 321 323 325 327 328 326 326 328 326 325 326 325 323 323 320 315 316 322 326 328 328 329 330 330 330 330 330 330 330 330 329 329 329 329 329 328 328 327 325 324 323 322 322 322 322 322 323 323 323 324 323 323 323 323 323
330 332 334 333 334 335 335 334 333 332 332 332 332 334 335 334 334 334 334 334 331 331 329 324 322 322 323 324 321 318 316 317 320 324 326 322 323 327 327 326 326 325 324 323 321 317 315 321 326 327 327 327 328 329 330 331 331 331 331 331 331 331 331 331 331 330 330 330 330 329 328 327 327 326 325 325 324 323 323 323 323 324 323 323 323
322 326 331 332 333 335 335 335 334 334 332 331 331 332 333 333 334 334 334 333 332 330 327 323 321 321 321 320 317 316 316 317 318 320 323 323 325 328 328 328 327 326 325 323 322 319 316 319 325 326 326 325 325 326 327 329 330 330 331 331 331 332 332 332 332 332 332 331 331 331 331 331 331 330 329 329 328 326 325 325 326 326 327 326 326
319 320 323 326 330 333 334 335 336 336 334 333 332 331 331 330 331 331 330 330 330 330 327 323 321 321 320 317 315 316 320 323 324 325 327 328 327 327 327 327 327 327 326 324 322 320 317 317 321 324 324 324 324 324 325 326 327 329 330 331 331 331 332 332 332 332 332 332 332 332 331 331 331 331 331 330 330 329 328 328 328 328 328 329 329
319 319 320 323 328 330 333 335 335 335 336 335 334 333 332 332 331 330 329 327 326 326 325 324 322 322 320 316 317 319 322 326 328 327 330 332 328 327 331 329 327 328 326 325 323 320 318 315 318 321 322 322 323 323 324 325 326 328 329 329 330 331 331 331 331 331 331 331 331 331 332 332 331 331 331 331 331 330 330 330 330 329 329 330 330
320 320 319 323 328 329 331 333 333 333 335 336 335 334 335 335 334 332 332 330 327 326 325 324 324 323 321 316 319 324 323 324 325 324 327 331 329 329 333 331 328 328 326 325 323 319 316 314 316 318 320 321 322 322 324 325 328 329 330 330 331 331 331 330 330 329 328 328 328 329 330 330 330 329 329 329 328 329 329 329 328 328 329 329 328
320 319 319 323 327 326 326 327 327 327 331 334 335 334 334 334 334 333 332 332 330 330 328 326 324 324 323 320 322 324 322 321 326 325 325 327 328 328 329 329 329 328 325 324 321 316 314 314 316 318 320 321 321 323 324 327 329 331 331 331 331 331 331 331 330 328 326 326 325 325 325 325 325 324 323 323 322 322 323 322 321 321 322 322 322
319 319 319 324 326 321 319 319 318 318 322 328 332 333 333 334 333 333 333 332 332 332 331 328 324 324 325 325 324 323 320 319 325 326 325 326 325 324 324 325 326 325 323 322 318 315 315 316 317 318 320 321 323 325 326 328 330 331 332 331 330 330 329 330 328 326 325 325 324 324 322 324 325 323 321 321 319 316 316 315 314 314 314 314 315
318 319 319 323 324 318 316 316 316 316 318 323 329 332 333 333 333 333 333 333 332 331 330 328 325 324 324 325 325 325 323 320 320 320 324 327 325 322 324 324 321 320 319 318 317 316 317 318 319 320 321 323 325 327 329 330 331 331 331 329 328 328 327 326 325 324 323 324 325 323 321 325 327 325 323 322 319 316 314 313 313 313 313 313 313
315 318 319 321 321 316 314 316 316 318 318 318 322 326 330 332 333 333 333 333 332 331 331 329 327 327 326 326 327 328 328 327 323 319 319 324 323 322 325 324 319 318 318 318 318 319 319 320 321 322 324 325 327 329 330 329 328 328 327 327 328 329 330 327 324 321 320 322 323 323 323 326 327 326 324 321 319 318 317 316 317 315 314 314 315
310 313 316 318 319 316 314 315 317 318 318 317 317 318 321 326 330 331 332 332 332 332 332 332 331 330 329 330 330 331 332 332 330 325 321 322 322 321 324 324 321 319 319 319 320 320 321 323 324 325 327 328 330 330 329 328 328 328 328 329 330 330 330 328 324 319 317 320 322 323 325 327 328 326 323 320 320 322 321 321 320 318 318 317 317
307 308 310 314 317 318 316 315 316 317 318 318 317 316 317 320 325 329 331 333 332 332 332 333 333 333 332 332 333 333 334 334 333 330 327 325 326 327 328 328 326 323 321 321 322 322 324 325 327 328 330 331 331 330 330 330 328 328 330 330 330 330 329 329 327 323 320 321 321 321 322 324 325 322 320 321 323 324 323 322 322 321 322 321 320
306 306 306 309 313 316 317 317 316 316 317 317 317 317 317 320 326 329 331 332 333 332 332 331 331 332 333 333 333 333 334 334 334 333 331 329 330 332 332 332 330 327 325 326 326 325 326 328 330 331 331 331 330 330 331 331 327 326 329 330 329 329 329 329 329 327 326 325 322 320 320 322 322 321 321 322 322 323 322 322 323 324 324 323 322
306 306 306 306 308 311 314 316 317 317 317 317 317 317 317 321 327 331 333 333 333 332 331 331 331 332 333 332 332 332 331 331 332 332 332 331 332 333 332 332 332 331 330 330 330 330 330 330 332 332 331 332 331 330 330 330 327 326 328 329 329 329 328 329 329 328 328 327 325 323 323 324 324 324 325 324 323 323 322 323 324 324 325 324 324
306 306 306 306 306 307 310 313 315 317 319 319 318 317 317 319 322 326 328 330 331 331 331 330 330 329 328 328 328 327 326 326 327 328 328 329 330 332 332 332 332 332 332 332 332 332 332 333 333 332 331 331 330 330 329 328 326 325 326 326 327 328 328 328 329 328 328 328 327 327 327 327 326 326 327 326 325 324 323 324 325 325 325 324 323
306 306 306 306 306 306 308 310 312 314 317 319 319 318 318 319 320 322 322 323 327 329 328 327 326 325 324 324 322 319 317 316 317 319 318 318 320 324 326 329 330 331 331 331 331 332 332 332 332 332 331 330 330 330 330 329 328 327 326 326 326 328 328 328 329 329 329 329 329 329 328 328 327 327 327 326 326 325 325 325 325 325 324 324 323
305 306 306 306 306 306 307 308 310 312 315 317 319 319 319 319 320 322 324 325 327 328 327 326 325 322 320 318 313 309 308 307 308 309 309 309 310 311 314 317 319 321 323 324 325 327 328 329 330 330 329 329 330 330 329 329 329 328 327 327 327 327 329 330 330 328 328 329 329 329 328 328 327 327 327 327 326 326 326 325 325 324 324 324 324
305 305 306 306 306 306 307 308 310 312 314 317 319 320 321 320 319 321 325 327 327 327 326 323 319 314 311 309 307 306 306 306 306 306 306 307 307 306 307 308 308 310 312 313 314 315 317 320 324 326 327 328 328 328 327 327 326 325 325 326 326 326 327 329 329 327 328 329 329 328 328 328 328 328 327 327 326 326 326 325 324 323 322 322 323
305 305 305 306 307 307 307 309 311 313 315 317 320 322 322 321 320 319 322 325 326 324 320 314 309 306 306 306 305 305 305 305 305 305 304 305 305 305 305 305 306 305 307 309 309 309 310 312 315 318 320 322 323 324 324 325 325 325 324 324 324 324 324 325 325 326 327 328 328 328 328 328 327 327 326 325 325 325 325 324 324 321 317 317 317
304 305 305 305 307 308 308 310 311 314 316 318 320 323 323 323 322 318 316 320 324 321 313 307 306 306 305 305 305 305 305 305 305 305 305 305 305 305 304 304 304 304 304 306 307 307 307 309 312 314 315 316 317 318 318 320 322 323 324 324 324 324 324 323 324 325 325 326 327 326 326 326 325 325 324 323 323 323 323 322 321 317 312 310 309
Wind_Speed
25 26 28 32 32 31 28 26 26 25 25 24 26 25 24 22 21 20 19 18 18 19 20 21 21 18 18 17 17 16 15 14 13 12 11 11 13 14 15 16 17 17 17 17 16 18 21 24 24 22 21 19 18 17 16 16 16 17 17 17 18 19 19 17 16 15 13 12 12 13 13 13 13 14 14 14 14 14 14 15 15 16 16 16 16
28 27 27 32 32 33 31 28 28 25 25 24 26 26 24 24 22 20 19 18 18 20 21 21 21 18 18 17 16 15 14 13 13 13 12 11 11 12 14 15 17 17 17 17 16 16 19 22 20 18 18 18 17 16 16 15 16 18 18 18 18 19 18 16 16 14 13 13 13 15 15 15 14 14 14 14 14 13 13 15 15 15 16 16 15
29 25 24 30 32 33 32 30 28 25 24 25 27 27 25 24 22 21 19 18 19 20 21 21 21 18 18 17 16 14 13 13 13 14 13 11 10 11 11 13 15 16 16 16 16 15 17 19 18 17 17 17 16 15 15 15 16 17 18 19 18 17 16 16 15 13 13 13 15 17 18 17 16 15 14 14 13 13 13 14 14 15 15 15 15
28 24 22 28 32 31 31 29 28 26 24 25 27 27 26 25 23 21 19 18 19 20 20 22 21 18 17 16 15 13 12 12 13 13 14 13 10 9 10 11 12 14 15 15 15 14 15 18 17 17 16 16 15 14 14 15 16 16 17 18 17 16 15 15 14 14 14 14 17 18 19 19 18 17 16 16 15 13 14 14 14 14 14 14 14
28 24 23 26 30 29 29 28 28 28 25 25 27 27 26 25 23 22 20 18 19 20 20 21 20 18 17 16 15 13 12 12 12 13 14 14 13 10 8 10 11 12 14 15 14 14 15 17 17 16 15 15 15 14 14 15 16 16 16 16 16 16 15 15 14 14 14 15 18 17 17 20 19 19 17 17 16 14 14 13 14 13 13 13 13
26 23 23 25 28 28 28 27 27 27 26 26 27 27 26 25 24 23 21 19 19 20 19 19 18 17 16 15 14 13 12 12 11 12 13 13 13 13 10 9 11 11 12 13 13 13 16 18 18 16 15 15 15 14 14 15 15 15 15 15 15 15 14 14 14 14 14 16 17 15 16 19 19 19 18 17 16 15 14 14 13 13 12 11 12
22 22 21 24 27 27 28 26 26 25 25 26 26 26 25 25 24 24 22 20 19 19 18 18 18 17 16 15 14 12 11 11 11 11 12 13 12 13 12 9 9 11 10 11 12 12 15 18 17 15 15 15 15 14 14 14 15 14 14 14 14 14 13 13 13 13 14 15 14 13 14 16 18 19 18 17 17 16 16 15 14 13 12 11 12
21 22 20 23 26 26 27 25 25 25 25 25 25 25 25 25 25 24 23 21 19 19 18 18 19 18 16 15 13 12 10 11 11 10 10 11 12 12 12 10 8 10 12 10 11 12 14 16 17 15 14 14 14 14 13 14 14 13 13 13 13 13 13 12 12 12 12 13 13 12 13 14 16 17 17 16 16 16 15 16 15 14 13 13 13
21 23 22 23 24 26 26 25 25 24 24 24 24 25 25 25 25 25 24 22 19 19 19 19 19 19 17 15 13 11 10 10 10 9 9 10 10 10 10 10 8 7 11 12 10 11 12 14 16 17 15 14 14 14 13 13 13 12 12 12 13 12 11 11 10 11 11 10 11 11 10 11 12 13 13 14 14 13 13 14 14 14 13 13 13
21 22 22 22 23 26 26 25 25 23 23 23 23 24 25 26 26 26 25 24 21 20 20 19 20 20 18 15 13 11 10 11 10 9 8 9 8 8 9 8 7 6 8 13 12 10 10 11 14 17 17 15 15 14 13 12 11 11 12 11 12 11 10 10 9 9 9 8 8 8 7 8 9 9 10 11 11 11 11 11 12 12 12 12 12
22 22 21 22 24 26 25 24 23 23 23 23 22 22 23 25 28 27 26 25 23 21 20 20 21 20 18 16 14 12 11 11 10 8 7 7 7 7 8 8 6 5 5 11 14 12 11 11 12 16 19 16 15 15 13 12 10 10 11 10 11 10 10 9 8 8 7 6 5 5 4 5 6 6 7 8 8 8 8 9 10 10 11 12 11
23 21 21 22 24 25 25 23 22 23 23 22 21 21 21 23 28 29 28 27 24 22 21 21 22 21 19 17 15 13 12 11 10 8 6 5 6 7 7 7 6 4 4 7 12 13 12 13 12 15 19 17 15 15 14 12 10 10 10 10 10 10 9 8 6 5 4 2 2 1 2 2 3 4 5 6 5 6 6 7 9 9 10 10 9
23 21 23 23 23 24 24 23 22 22 22 22 21 20 20 20 25 30 30 28 25 23 22 22 22 21 19 17 16 14 12 11 10 9 7 5 5 6 7 7 6 4 3 5 9 12 13 15 15 15 18 18 16 16 14 12 10 10 10 10 10 10 9 7 5 3 2 1 1 1 2 2 2 3 4 3 3 4 5 7 8 8 8 8 8
23 22 23 22 22 23 23 23 22 22 21 20 20 19 20 20 23 30 32 29 26 24 23 23 23 22 20 18 16 14 12 10 10 9 7 5 5 6 7 6 5 4 2 4 8 11 13 16 17 17 17 17 17 16 15 13 11 10 10 10 10 10 8 6 5 3 2 1 0 1 1 1 2 3 3 2 2 4 5 7 7 6 7 7 7
22 23 23 21 23 24 23 22 21 21 20 18 18 19 20 22 25 31 32 29 27 25 24 24 23 22 21 19 17 14 12 11 10 10 8 5 5 6 6 6 5 4 2 3 7 10 12 16 18 18 18 17 17 17 15 14 12 11 10 10 10 9 8 6 5 4 2 1 1 1 0 1 2 3 3 3 3 5 5 6 6 5 5 6 7
22 23 23 21 22 24 23 22 21 20 19 16 17 19 21 24 29 33 32 29 27 25 24 25 24 23 21 19 17 15 14 13 11 10 8 6 4 5 6 5 4 4 2 2 6 9 10 15 19 19 19 18 18 17 16 14 13 12 11 10 10 9 8 6 5 4 3 2 2 1 1 1 2 2 2 3 4 5 6 6 4 3 4 4 5
23 23 21 21 22 24 24 22 21 19 17 15 16 19 24 29 32 34 32 28 26 25 24 25 25 23 22 19 17 16 15 13 11 10 9 6 4 4 4 4 4 4 2 2 6 8 9 14 17 19 20 20 18 17 16 15 14 12 11 11 10 9 8 7 6 5 5 4 3 2 1 2 1 0 0 1 3 4 6 7 5 4 4 4 5
23 22 20 22 23 24 24 22 22 19 15 14 15 20 28 33 34 33 30 27 26 25 24 24 24 23 21 20 18 17 15 13 12 10 9 7 4 4 3 3 3 3 2 2 5 7 9 12 14 16 19 20 20 18 17 16 14 13 12 11 10 10 9 8 7 6 6 5 4 3 3 3 2 0 1 2 3 4 5 7 7 7 6 5 6
21 21 20 22 24 25 24 23 22 18 15 16 19 24 30 33 32 30 28 26 24 24 24 24 23 22 20 20 18 17 16 14 12 10 9 7 4 3 3 2 2 2 2 2 4 5 6 9 10 12 17 19 20 20 18 16 15 14 12 11 11 10 9 9 8 8 7 6 6 5 5 5 3 2 3 4 4 5 6 6 6 7 7 7 8
20 20 20 22 24 26 26 25 23 19 18 20 23 26 29 30 30 28 25 24 23 22 23 23 22 21 20 19 18 17 16 15 13 11 10 8 6 3 2 1 1 1 2 2 3 4 5 6 8 10 14 16 16 18 18 17 15 14 13 12 11 10 10 10 10 9 9 9 8 7 8 7 6 6 5 6 6 7 7 8 7 8 9 10 11
19 20 21 22 24 26 27 26 23 21 20 24 26 26 28 29 27 26 24 23 22 22 23 22 22 21 20 19 18 17 17 16 14 13 12 10 8 4 2 1 2 2 2 2 3 3 3 4 6 8 10 12 13 15 16 16 15 14 14 13 12 11 11 11 10 11 10 10 10 9 10 9 8 8 7 7 7 9 9 9 9 9 10 10 11
19 20 21 22 24 26 27 26 23 22 22 24 26 27 28 27 25 24 24 22 21 21 22 22 21 21 20 19 18 18 17 17 16 15 14 12 10 6 3 2 2 3 3 3 3 4 4 4 4 5 7 9 11 14 14 14 13 13 13 12 12 12 12 11 11 11 12 11 11 11 12 11 10 9 8 8 8 10 10 10 10 10 10 10 11
19 20 21 22 24 26 27 26 24 24 24 24 25 27 27 26 25 24 24 23 22 22 21 20 21 20 20 19 19 18 18 18 17 16 15 13 11 8 5 4 4 4 4 3 4 5 6 5 5 5 5 6 9 11 12 12 12 11 11 11 11 12 11 11 12 12 12 12 12 12 12 11 11 10 9 9 9 10 11 11 10 11 11 10 10
18 20 21 22 24 26 27 27 26 26 26 25 25 25 27 28 26 25 24 23 22 21 21 21 21 20 19 19 19 18 18 18 18 17 16 15 12 10 8 6 5 5 6 5 4 5 6 7 7 6 6 6 6 7 9 10 10 10 10 10 10 10 10 10 11 11 12 12 11 11 10 10 10 10 9 9 10 11 11 11 11 11 11 11 11
17 20 21 22 24 26 28 28 27 27 28 27 26 25 26 28 27 26 24 23 23 22 21 21 20 20 20 20 19 18 19 19 20 19 18 17 14 12 10 8 8 7 7 7 6 6 6 7 7 7 7 7 7 7 7 7 8 9 9 9 9 9 8 8 9 9 9 10 10 9 9 9 9 9 9 9 10 11 12 12 12 12 12 12 12
16 19 21 22 24 26 27 29 28 28 28 27 27 26 25 27 27 26 26 25 24 24 23 22 21 21 21 20 19 19 20 21 20 20 20 18 15 13 11 10 9 9 9 9 8 7 7 7 6 6 7 7 7 7 7 7 7 7 8 8 8 8 8 8 8 7 8 8 8 7 8 8 8 9 8 8 9 11 12 12 13 13 13 13 13
14 16 19 22 25 26 27 29 29 29 29 27 27 27 26 26 26 26 27 26 25 25 25 24 22 22 22 21 20 20 20 20 19 19 20 19 17 14 12 12 11 11 11 11 11 10 9 8 7 7 7 7 7 7 7 8 7 7 7 7 7 7 7 8 8 8 8 8 8 7 7 7 7 8 8 8 8 10 12 13 14 14 13 13 13
13 12 15 21 26 26 25 28 29 30 30 28 27 27 27 26 27 27 27 27 26 25 25 24 23 23 23 22 20 20 19 20 19 19 20 20 19 16 14 14 13 13 13 12 12 12 11 10 9 8 8 9 9 9 9 9 9 8 8 8 7 7 7 7 7 7 8 8 8 7 7 7 7 7 7 7 7 8 10 12 14 14 14 14 14
16 14 13 18 25 27 25 27 30 32 31 30 30 30 28 27 27 27 27 27 27 26 25 25 24 23 23 22 20 20 20 20 20 19 21 22 21 19 17 17 16 15 15 14 13 13 13 11 10 10 10 10 10 10 10 10 10 10 10 9 9 8 8 8 7 7 8 8 8 8 7 7 7 7 7 7 7 8 8 9 11 13 13 14 14
17 17 15 16 22 26 26 26 28 32 32 31 31 31 28 26 27 27 26 27 27 26 25 25 25 24 24 23 23 21 20 20 20 20 21 23 22 22 22 20 18 17 17 16 14 15 15 13 12 11 11 10 10 10 10 10 9 9 9 10 10 10 9 9 8 8 9 9 9 9 8 7 7 7 8 8 8 8 8 8 9 10 11 12 13
18 18 18 18 21 22 23 23 25 30 31 31 32 32 28 28 29 28 27 28 28 27 25 26 26 26 25 24 25 25 23 22 21 21 22 22 21 22 24 22 20 19 18 17 16 16 16 15 14 13 12 10 10 10 9 9 8 8 8 8 8 8 7 7 7 7 8 9 9 9 8 8 7 8 8 8 8 8 9 9 9 10 10 11 12
18 19 18 19 21 22 22 22 25 29 30 30 32 33 29 31 33 30 28 28 30 31 29 28 28 28 27 25 26 28 27 25 22 21 22 22 22 23 23 22 21 20 19 17 16 16 16 16 15 14 12 11 10 10 10 10 9 8 8 8 8 8 7 7 6 6 7 7 8 7 7 8 8 9 9 9 9 10 10 10 11 11 12 12 13
16 18 20 21 22 23 23 23 25 28 29 28 30 31 29 31 34 32 29 28 31 34 33 32 31 30 29 28 28 29 29 27 25 24 24 23 23 24 23 22 22 20 19 18 17 16 17 18 17 15 13 12 11 10 11 11 10 10 10 10 10 10 9 8 8 8 8 8 8 8 8 8 9 9 10 10 10 10 11 11 11 11 12 13 13
14 16 20 22 24 24 24 24 25 26 26 26 28 28 27 29 31 30 29 30 33 35 34 34 33 32 31 30 30 29 27 27 26 24 23 22 22 22 22 22 22 21 20 18 18 18 18 19 19 17 16 14 13 12 12 13 12 12 12 13 13 13 12 11 11 11 11 11 11 10 10 10 10 11 12 12 13 12 12 12 12 13 13 13 14
16 17 18 19 23 25 26 28 27 27 25 23 25 25 24 26 28 27 28 30 32 33 34 34 33 32 32 31 31 29 25 22 21 21 21 22 22 21 22 24 23 21 21 19 19 19 19 21 21 20 18 16 15 14 14 15 15 14 13 14 15 15 15 14 14 14 14 15 14 14 13 13 13 13 14 15 16 16 15 15 16 16 16 17 17
20 19 19 19 21 23 28 31 29 29 27 24 24 25 23 24 25 25 28 30 31 31 31 32 32 30 31 31 29 27 24 21 20 20 21 23 24 22 21 22 22 21 21 20 20 20 21 22 23 22 20 18 17 16 16 17 17 16 15 17 17 17 17 17 17 17 17 18 18 18 17 16 16 17 18 19 20 19 19 19 20 20 21 21 21
24 22 21 21 20 20 26 30 28 28 29 28 26 27 25 24 24 24 25 28 31 33 31 29 28 27 29 30 27 24 24 23 22 22 22 23 23 23 23 21 20 21 22 21 21 21 22 23 24 23 21 19 19 19 18 18 18 18 18 19 18 17 18 19 18 19 18 18 17 18 18 18 19 20 21 21 21 21 22 21 22 23 24 24 24
26 24 23 22 21 19 22 24 22 21 24 26 26 28 26 24 25 23 21 24 28 32 32 31 28 25 25 26 24 22 23 23 21 21 22 23 24 25 26 24 21 23 23 23 23 23 23 24 24 23 22 20 20 20 19 19 19 20 19 19 18 18 19 19 19 19 18 17 16 15 16 17 17 18 18 18 18 18 19 20 20 21 22 22 22
25 25 24 23 23 22 20 18 16 15 18 22 23 24 24 23 23 22 20 20 23 27 31 32 30 27 23 22 21 21 23 23 22 22 21 23 26 26 27 26 23 24 24 24 24 24 24 23 23 22 22 21 21 21 21 20 19 18 17 17 17 18 19 18 18 19 19 18 17 15 15 15 16 16 15 14 14 14 14 15 16 16 16 16 17
26 25 26 25 26 25 23 20 17 15 16 19 21 22 22 23 22 22 21 19 21 24 28 30 30 29 26 24 23 23 23 24 26 26 23 23 25 23 22 23 23 24 26 26 26 24 23 22 22 22 23 23 23 24 22 18 16 15 15 17 16 17 18 17 18 19 19 18 18 17 17 16 15 14 13 12 13 12 11 12 12 14 15 16 17
27 27 28 29 28 27 26 25 22 19 18 18 19 20 21 21 22 22 21 20 21 22 24 26 27 27 27 26 26 25 25 26 27 28 27 26 26 24 21 22 23 25 26 26 26 25 23 23 23 23 24 25 25 24 19 15 15 16 17 17 16 15 16 16 18 18 18 18 18 18 16 15 14 12 12 12 12 11 10 12 14 16 16 16 17
26 27 29 32 32 31 29 27 26 24 22 19 18 19 19 19 20 21 21 22 22 22 22 24 25 27 27 27 27 27 26 27 27 28 28 27 26 26 24 24 25 27 28 28 27 26 26 26 26 26 26 25 22 19 15 14 15 16 15 14 14 13 14 16 17 15 14 15 15 15 13 12 11 11 11 12 12 12 13 15 17 16 15 16 16
25 26 27 31 35 36 35 33 30 28 25 22 20 20 20 20 21 22 22 23 24 25 25 24 25 26 27 28 28 29 29 29 28 28 28 27 26 27 25 26 27 27 28 28 28 29 29 28 27 25 24 22 19 17 16 16 16 14 12 13 12 10 12 13 12 11 10 12 14 14 14 12 10 11 13 15 14 15 16 18 17 15 16 17 18
28 28 27 29 33 38 40 39 37 35 32 28 24 22 22 23 23 23 22 22 23 25 26 26 27 27 29 29 29 31 31 31 30 30 30 29 28 27 24 23 26 29 29 29 30 31 31 29 27 26 23 21 21 20 18 18 19 16 11 11 10 10 11 10 8 10 11 14 15 13 13 12 13 15 17 17 17 17 17 17 17 17 18 19 19
31 31 30 28 30 34 38 40 41 41 39 35 31 27 25 25 25 24 24 23 22 24 26 26 28 28 27 28 28 28 27 25 26 27 29 30 31 29 25 23 23 25 26 26 27 29 31 29 28 28 26 23 21 19 19 20 20 18 14 12 11 10 10 9 9 12 12 14 15 14 16 16 16 17 16 16 17 17 17 17 18 19 20 20 19
30 31 31 30 29 32 34 36 39 41 42 40 36 31 28 27 27 27 27 25 24 23 23 23 24 21 19 19 18 16 15 14 14 15 17 20 23 24 25 25 25 26 26 26 25 27 29 30 29 29 29 26 21 17 17 18 17 17 16 16 14 12 12 12 13 14 14 15 16 16 18 18 18 18 16 17 19 18 17 18 19 20 21 21 21
29 28 29 30 30 31 32 33 34 37 39 40 38 35 32 30 29 28 28 27 25 23 20 18 18 17 16 15 13 11 10 10 10 11 13 14 14 15 16 18 20 22 24 25 25 26 27 27 26 26 26 26 23 20 18 15 13 13 15 17 17 16 16 17 16 15 16 17 17 17 18 18 20 21 20 20 20 18 17 18 20 21 22 22 22
29 27 27 29 30 31 31 32 32 33 34 36 37 37 36 34 31 28 27 25 24 23 20 17 16 16 15 13 11 9 9 10 10 11 12 13 14 14 14 14 15 16 17 17 17 19 20 18 18 18 18 18 19 18 16 13 12 12 14 16 17 17 16 17 18 18 18 19 19 18 19 19 20 20 20 19 18 17 18 20 22 23 24 25 24
29 26 25 25 28 30 31 31 32 32 32 33 34 36 37 36 34 30 28 26 24 22 19 16 15 12 10 9 8 6 6 7 8 9 10 11 12 12 13 14 14 17 19 18 16 17 18 16 15 17 16 15 15 14 13 13 13 14 15 15 16 17 16 15 18 19 19 21 21 18 18 17 17 17 16 17 19 20 21 22 25 27 27 28 28
32 28 25 23 25 28 30 31 32 32 32 33 34 35 36 36 36 35 31 28 25 23 19 15 13 10 8 7 7 5 4 4 4 5 7 9 10 11 11 12 12 14 16 16 16 16 17 17 16 16 17 17 18 18 17 16 16 16 16 16 15 16 17 17 18 18 17 18 19 18 17 15 15 17 18 21 23 24 23 23 28 33 32 31 31
33 31 26 23 24 27 29 30 31 32 32 33 35 37 37 37 39 40 38 33 29 25 21 17 14 11 9 8 6 5 3 2 3 5 6 8 9 10 10 11 11 12 13 15 16 15 16 17 17 16 16 16 16 17 17 17 17 18 19 20 18 17 17 18 19 19 19 19 17 17 19 20 22 21 20 23 25 25 26 27 32 36 34 33 33
Wind_Direction
180 182 179 175 172 169 173 175 176 175 176 178 178 174 171 169 166 165 164 164 162 163 160 156 153 143 132 126 112 99 92 86 82 87 108 119 112 109 109 109 107 106 105 104 105 103 112 123 118 113 113 114 116 117 120 122 124 124 125 127 124 122 119 115 108 98 85 75 71 70 72 78 84 84 84 89 88 87 83 78 79 79 79 79 77
182 180 180 179 175 173 175 176 177 175 178 181 178 174 171 171 168 167 167 167 164 163 162 157 154 143 133 130 116 105 97 92 86 84 96 115 119 114 110 110 110 110 111 109 109 106 117 130 125 116 117 120 123 124 125 126 125 124 128 129 126 122 119 115 105 93 82 76 75 74 77 81 85 83 84 91 89 87 83 78 79 80 81 82 80
181 175 178 181 178 176 178 178 176 176 180 181 178 174 172 172 170 169 170 170 164 163 161 157 156 144 135 132 121 112 105 100 94 88 88 99 119 127 119 114 115 116 116 114 114 110 120 136 134 126 125 125 127 127 128 129 127 127 130 131 128 124 120 113 101 89 81 79 81 77 77 80 83 82 82 89 85 80 78 76 77 78 79 80 78
180 172 175 180 180 179 179 178 175 176 179 181 179 175 174 174 172 172 171 171 163 160 161 160 157 145 137 134 128 122 114 110 102 94 89 88 97 123 137 128 120 122 121 118 119 117 124 141 142 135 132 130 130 129 130 131 131 131 133 133 130 126 119 110 100 89 82 82 82 78 77 80 81 80 78 80 77 72 70 70 73 74 75 76 75
180 172 176 178 179 179 179 178 175 176 179 182 181 177 176 175 174 174 173 171 164 160 164 161 156 149 143 139 136 132 124 121 111 99 92 87 84 93 129 145 137 127 124 123 124 126 131 146 149 142 137 136 135 132 133 133 132 135 138 137 131 125 118 110 102 92 87 85 83 82 81 80 80 79 77 76 74 71 68 65 67 67 69 72 73
178 172 177 178 177 180 179 178 176 175 180 184 183 180 179 178 177 177 175 172 166 163 166 162 158 156 149 147 145 141 134 130 120 106 95 87 83 82 97 140 155 142 130 130 131 133 139 152 155 149 144 143 142 138 136 134 136 140 140 139 135 127 121 115 106 100 93 87 85 84 81 76 76 76 74 74 73 70 67 64 63 63 61 64 69
175 171 176 179 178 181 181 182 180 177 183 187 186 185 183 182 180 179 177 176 170 165 169 166 165 164 156 154 152 148 141 138 126 111 99 88 83 81 83 106 150 161 151 140 141 143 146 159 162 157 153 150 148 145 140 136 138 144 142 140 139 134 129 121 111 107 100 89 86 85 82 74 70 70 68 67 67 65 64 64 63 63 58 57 66
175 171 173 177 177 180 183 184 184 183 187 190 190 190 187 185 183 181 180 180 177 170 172 171 170 170 164 161 158 153 148 145 134 116 101 90 82 78 80 86 116 161 171 160 156 155 149 162 172 170 164 158 155 151 146 140 141 144 143 144 145 141 135 126 116 114 106 95 89 85 84 77 68 65 63 60 60 60 60 63 63 63 60 58 62
176 172 173 176 176 178 182 185 185 187 189 192 193 193 191 190 186 184 183 183 182 176 175 175 173 172 170 166 162 160 156 154 143 123 102 89 80 73 73 77 89 136 174 180 176 168 158 162 175 180 174 167 162 159 154 147 146 145 144 147 150 148 140 129 123 119 111 101 93 84 81 80 71 63 61 58 56 56 56 60 61 62 62 61 60
176 174 175 176 177 179 183 185 185 186 187 189 191 192 193 193 191 187 186 185 185 182 178 178 176 174 174 170 167 167 164 161 150 128 105 90 79 72 66 66 77 101 161 185 190 185 175 167 173 183 181 173 168 165 162 158 154 151 150 152 154 153 145 137 131 119 111 105 94 84 76 76 70 58 54 56 56 54 50 53 55 56 59 61 58
176 176 176 176 178 180 184 184 182 183 183 184 185 188 188 190 193 189 188 188 187 186 181 180 179 177 176 174 172 173 172 164 154 136 113 97 80 70 60 55 67 87 143 179 192 192 187 175 170 179 180 177 172 169 168 167 164 160 160 160 160 160 154 148 139 123 113 104 94 85 70 64 59 47 43 49 58 59 54 51 50 46 49 55 55
175 179 179 177 179 182 184 185 183 185 185 184 185 187 185 185 191 190 190 190 189 187 184 183 182 180 178 177 177 176 174 165 160 149 126 108 84 70 57 48 58 83 137 171 185 189 187 181 173 172 176 179 177 173 173 173 173 169 168 168 168 169 165 158 147 132 121 105 89 70 40 37 28 21 26 36 50 60 59 53 51 47 46 51 51
175 183 180 176 179 184 186 187 185 187 189 186 188 192 191 187 188 189 190 190 189 186 184 185 184 182 181 182 181 177 173 169 166 158 142 120 88 69 56 47 53 78 135 172 179 182 183 183 178 172 174 180 181 178 176 177 178 174 171 173 174 176 175 171 169 161 148 136 48 357 11 15 354 351 5 24 35 40 47 49 51 51 50 52 49
177 183 177 175 182 186 188 189 186 189 192 191 193 197 197 198 193 186 188 190 189 186 183 184 185 184 185 186 183 177 172 173 172 165 155 132 92 69 58 48 49 64 114 175 178 179 179 180 182 178 178 182 183 182 180 181 181 179 176 176 179 183 186 187 193 194 172 158 116 26 17 18 338 333 351 20 32 32 41 45 46 50 53 50 42
179 179 175 178 185 186 188 190 189 192 196 198 203 205 204 205 195 183 185 189 188 187 184 184 186 185 187 188 184 178 175 176 178 174 165 143 99 71 59 48 44 49 73 170 180 184 179 180 184 183 183 185 186 186 185 187 186 184 183 183 186 190 193 196 212 214 188 185 176 144 50 338 320 328 3 23 13 18 21 23 28 37 50 46 33
177 174 177 183 185 187 188 190 191 194 200 207 212 213 207 199 187 180 184 188 188 188 186 185 186 186 187 190 186 181 181 181 182 179 171 153 113 77 59 48 41 40 59 168 183 191 189 186 187 186 186 187 188 189 190 191 191 191 191 192 195 199 199 195 215 231 220 219 209 194 189 251 307 326 7 18 355 349 346 352 11 29 32 26 15
175 172 181 185 186 188 188 189 192 197 204 210 213 207 195 185 178 179 185 187 188 188 188 187 186 186 188 191 189 186 188 188 185 180 176 165 124 86 60 49 43 38 63 167 184 193 200 195 191 189 189 190 190 192 193 193 194 196 196 198 200 205 208 202 210 225 229 225 217 225 215 242 271 24 1 345 339 332 328 331 339 349 353 351 347
175 174 185 187 189 189 187 188 191 197 200 198 200 192 180 175 175 180 186 188 188 187 189 190 189 188 189 193 193 190 193 194 188 183 183 176 142 100 67 55 52 39 65 157 185 192 201 202 199 196 193 192 194 195 196 196 196 197 198 200 203 206 211 211 212 217 225 229 228 241 240 245 247 166 280 273 309 317 311 313 317 322 325 325 326
177 180 188 191 193 191 188 188 190 193 190 180 180 178 172 171 176 182 187 188 188 186 187 191 192 190 191 195 196 194 195 197 191 189 192 186 164 122 81 67 66 50 75 132 177 190 196 204 208 206 201 198 198 198 199 201 201 202 204 205 209 212 216 218 220 221 225 233 233 240 244 245 255 274 285 283 294 302 297 290 293 300 300 304 310
181 187 193 194 197 195 192 190 189 189 181 171 170 171 170 173 179 184 188 190 189 189 188 191 192 192 195 196 198 198 198 200 195 195 199 195 184 157 107 86 110 86 87 111 146 175 183 195 205 207 208 206 202 201 203 206 209 211 213 215 218 220 225 227 231 232 233 237 236 240 245 246 258 272 280 285 288 288 287 279 278 283 287 294 297
186 191 196 197 197 197 193 189 187 188 180 170 169 172 173 177 182 186 190 192 191 193 190 189 192 195 197 199 200 202 202 202 198 199 202 201 196 180 175 147 148 156 123 109 115 136 156 175 191 199 205 207 206 204 205 210 213 217 221 223 226 230 235 238 242 243 245 248 247 248 250 250 255 266 274 280 282 279 278 276 279 282 285 291 291
192 192 197 200 200 199 196 191 188 189 183 175 174 177 179 180 185 189 191 192 191 194 193 190 194 196 197 199 200 203 204 202 201 202 203 204 201 193 201 199 174 181 171 135 121 123 129 142 162 177 189 197 204 206 208 212 214 218 223 227 231 236 240 245 249 253 257 260 261 259 258 258 257 261 269 274 276 274 274 275 277 280 282 283 285
198 195 198 202 202 201 198 195 192 191 188 183 182 183 184 184 187 192 192 193 193 193 195 194 195 196 198 200 201 203 205 206 206 205 206 206 204 203 208 210 198 193 195 177 149 138 133 131 130 140 158 178 196 205 210 213 217 222 225 228 231 236 240 245 249 254 260 264 268 269 266 264 262 260 260 263 267 271 274 275 276 278 280 277 282
202 199 199 203 203 203 201 198 197 196 192 189 188 189 189 188 190 193 193 194 196 195 196 198 199 199 199 202 203 204 208 211 211 209 207 208 208 210 211 212 210 203 204 199 178 161 147 138 131 128 132 142 165 186 200 209 217 222 226 230 231 234 236 240 244 249 254 259 264 268 268 268 268 265 257 254 259 267 272 273 276 278 280 280 284
205 204 202 206 207 207 206 202 201 201 198 193 192 193 194 193 194 197 196 197 198 198 200 202 206 206 205 206 207 208 212 214 216 215 208 207 210 214 217 215 215 210 207 208 197 180 164 151 143 139 133 134 143 154 170 184 198 209 217 225 227 230 232 234 238 242 248 254 257 260 265 267 270 271 264 254 251 258 266 269 273 276 279 283 286
205 207 205 208 210 210 209 206 204 204 203 200 197 196 196 197 198 199 200 202 203 204 205 207 210 213 213 215 213 212 215 217 217 214 207 207 211 215 221 220 219 217 211 210 206 194 182 172 165 161 154 153 154 156 163 172 180 189 199 207 214 220 223 225 227 232 239 245 249 251 257 262 266 270 269 262 251 249 255 260 265 270 274 280 285
209 211 211 211 210 210 212 211 208 207 207 205 201 201 202 201 201 203 204 205 208 209 210 211 212 214 216 217 217 216 217 219 218 213 209 211 215 217 223 225 223 220 217 213 208 202 194 190 191 190 187 183 179 179 183 187 190 194 198 202 205 211 216 220 223 226 232 236 239 239 246 255 261 266 267 266 259 251 250 252 256 261 266 273 280
213 213 214 212 210 208 211 215 213 212 210 208 207 206 206 206 206 208 208 208 210 211 212 213 214 216 217 217 218 220 220 221 222 219 217 218 222 223 224 229 228 222 220 217 213 208 204 204 205 205 206 204 202 203 204 206 210 212 214 216 216 219 221 223 225 228 233 238 240 237 239 247 255 262 266 267 265 261 255 252 252 255 260 265 271
218 211 210 209 211 212 212 215 217 216 213 212 213 213 211 211 211 212 211 211 212 212 214 215 216 219 220 220 219 222 225 226 226 226 227 229 231 229 228 232 233 227 221 218 218 214 211 214 213 211 211 211 213 215 217 219 221 224 227 231 232 234 237 239 241 241 242 246 248 245 242 245 251 258 264 268 268 267 264 260 258 258 261 265 267
228 219 215 209 211 219 215 213 219 218 217 217 217 216 215 216 217 217 217 217 215 215 217 217 218 220 223 225 223 223 226 228 229 228 232 236 236 234 234 237 235 229 223 218 219 218 217 218 215 213 214 215 218 220 223 223 224 226 227 230 235 239 241 244 247 249 251 254 255 253 249 250 253 257 262 266 268 269 270 270 269 268 270 273 275
233 227 226 220 213 219 217 215 221 219 218 221 221 219 218 219 220 222 224 224 222 220 220 220 219 221 224 226 227 227 227 227 229 230 233 235 236 236 236 236 235 229 224 220 220 219 221 220 216 215 218 220 223 226 226 224 222 221 220 221 228 233 236 241 244 248 254 257 259 259 258 258 259 260 261 262 263 265 268 271 273 275 278 280 281
237 230 230 230 222 219 216 214 217 219 220 224 224 221 220 220 221 224 226 227 227 226 225 226 224 225 227 229 230 232 231 230 229 229 233 231 231 235 234 233 233 230 224 222 223 223 224 223 219 218 222 224 227 232 232 232 233 231 230 227 229 233 236 243 244 246 256 262 267 267 265 264 264 265 267 269 268 266 267 268 271 273 275 277 279
248 241 236 236 232 225 218 213 213 219 221 222 224 222 223 222 222 225 227 228 229 229 229 230 231 232 233 235 236 237 237 236 231 229 234 236 233 232 231 230 230 228 225 223 226 226 226 224 222 222 223 226 229 235 238 241 242 242 243 242 242 242 243 246 248 250 256 262 267 267 266 267 269 272 275 278 277 275 272 271 273 275 277 278 281
258 255 249 244 241 235 226 219 213 214 216 216 220 221 224 224 224 227 228 230 230 230 231 233 235 237 238 240 240 240 240 239 238 233 234 237 235 230 228 228 227 227 225 224 227 228 228 226 224 224 225 228 231 236 241 245 248 248 247 248 249 250 249 248 249 251 253 257 259 260 262 264 268 272 274 276 276 276 276 277 278 280 281 282 283
259 260 262 257 250 246 240 231 220 217 217 214 216 219 223 225 225 227 229 230 229 230 231 233 236 238 240 241 239 240 238 236 237 231 228 228 230 232 233 230 227 228 226 226 229 230 229 227 226 226 228 230 234 238 243 246 250 251 251 253 255 256 256 254 254 254 255 256 257 258 260 262 267 270 272 273 273 273 274 277 279 279 280 280 282
259 259 263 262 259 254 248 243 233 225 221 217 217 218 220 225 226 230 233 233 231 231 232 232 235 237 240 238 236 236 231 226 228 227 227 229 230 234 237 233 228 229 230 230 233 234 232 229 227 228 230 233 237 242 246 248 252 254 254 255 257 259 260 260 261 260 260 261 261 261 261 264 267 270 273 274 274 274 273 274 275 276 277 278 279
259 256 257 258 258 254 245 242 237 226 218 217 221 221 218 219 223 227 233 236 234 232 232 232 233 234 237 235 232 231 226 224 227 226 225 229 233 232 231 232 231 231 232 234 236 236 233 230 228 229 232 235 240 244 249 252 254 255 253 254 257 261 263 265 267 267 266 267 267 265 264 267 271 274 277 278 279 278 277 276 275 275 276 277 279
257 254 254 253 248 243 238 234 230 223 218 218 225 228 223 219 221 224 228 235 236 233 230 230 232 232 234 233 229 230 232 231 230 228 224 225 230 231 230 232 233 233 232 234 236 234 231 229 229 230 233 237 242 248 251 251 253 257 258 260 263 265 266 267 271 274 274 272 271 270 268 271 277 281 281 282 284 283 282 282 279 278 277 279 281
252 250 251 248 238 232 231 228 225 225 224 223 228 231 229 225 223 222 224 229 233 231 228 227 228 230 231 231 230 232 235 233 230 231 227 226 230 233 233 231 232 233 232 231 232 231 229 229 229 231 235 239 244 249 252 253 257 263 264 264 267 268 268 269 271 276 277 276 276 274 270 273 281 285 283 282 286 286 285 285 285 286 288 291 292
248 243 242 241 232 225 222 219 220 226 228 226 227 229 230 229 225 223 223 223 226 227 228 228 229 231 232 233 234 234 235 234 233 232 229 229 234 236 233 230 231 232 231 230 231 230 230 232 233 234 238 242 245 249 253 258 261 262 264 266 270 271 271 272 274 276 275 276 278 277 274 275 279 286 286 283 284 287 289 292 297 301 304 307 305
248 242 237 234 230 224 219 215 215 221 230 232 232 231 230 229 227 227 226 224 223 223 225 229 230 233 235 236 238 237 237 239 238 235 232 232 236 237 234 233 233 232 232 232 232 233 234 235 236 236 239 242 245 248 252 256 257 260 268 274 279 277 272 277 282 280 276 277 278 277 274 273 277 284 286 284 284 286 290 299 305 307 307 308 307
251 247 241 236 233 230 226 221 217 219 227 236 240 241 238 234 233 232 230 229 227 224 224 228 231 233 234 236 239 239 240 242 241 239 237 237 239 242 241 237 233 233 235 236 236 237 236 235 236 237 238 239 242 245 244 245 251 260 271 277 281 279 277 286 292 285 273 268 271 276 276 275 277 281 283 287 290 288 290 300 306 306 304 307 309
255 253 247 240 237 236 234 232 229 228 230 235 240 244 245 241 238 236 234 231 229 228 228 229 233 235 236 235 236 238 240 240 239 239 238 238 241 244 245 242 239 238 237 237 238 238 236 236 238 238 238 238 238 240 239 241 248 256 264 268 273 282 286 290 294 286 271 271 279 285 283 277 276 281 287 292 294 294 297 302 305 304 303 308 312
258 254 251 245 240 238 238 237 237 237 238 239 240 243 245 242 238 237 237 235 234 233 231 231 235 239 242 241 240 241 242 239 236 237 237 237 238 240 240 239 242 244 243 242 242 242 241 239 237 235 233 234 238 240 238 239 247 250 249 259 268 277 277 273 280 284 279 286 293 291 284 280 284 292 296 296 297 299 301 303 302 302 304 309 313
257 254 252 250 244 240 240 241 240 242 244 243 242 241 241 240 235 232 231 230 231 235 236 234 234 237 239 238 237 238 237 234 232 232 232 231 233 236 237 235 238 241 243 243 244 245 244 240 237 235 229 228 232 237 238 240 245 244 239 247 260 267 269 273 291 293 287 292 295 291 288 287 291 297 297 296 299 301 301 300 301 301 304 307 310
257 255 252 251 247 242 240 242 243 243 245 245 244 240 239 239 237 233 231 229 228 230 230 227 226 229 233 229 226 227 229 230 230 230 231 230 230 231 233 233 234 235 235 236 239 243 242 237 236 236 230 226 227 227 234 241 241 238 237 243 253 263 272 281 289 292 293 295 293 292 293 293 298 300 295 296 300 299 297 295 297 300 303 306 307
257 256 251 247 244 241 239 240 243 244 244 245 244 240 237 238 238 236 235 234 230 222 215 216 219 221 227 229 231 238 247 251 247 248 254 256 252 244 236 232 232 232 230 230 232 235 234 229 228 229 224 221 224 222 224 231 231 231 237 243 250 257 268 273 272 281 291 290 289 293 295 296 300 301 298 300 299 294 291 292 296 301 304 306 305
253 254 251 246 241 238 236 236 239 241 242 242 241 240 238 237 235 231 227 225 223 219 217 221 223 222 224 227 235 248 256 260 260 263 268 268 266 263 260 257 254 251 247 242 241 242 243 238 235 238 230 216 215 215 214 220 232 243 246 248 251 255 265 270 266 275 286 284 286 292 295 298 300 300 299 298 293 289 290 292 298 302 304 305 304
247 251 253 250 243 238 235 233 233 235 237 237 234 235 236 236 233 225 216 214 215 217 219 221 219 222 224 219 222 234 248 260 266 274 279 278 275 274 275 274 272 273 272 269 268 269 270 269 262 260 256 242 234 232 231 236 246 254 252 252 255 257 263 270 269 275 282 280 284 289 292 296 297 295 293 292 291 291 291 293 298 301 303 303 302
245 248 254 254 247 239 234 232 231 231 231 230 227 225 225 228 227 220 214 213 212 209 205 203 203 206 206 201 199 199 211 248 273 283 285 288 291 292 290 283 277 279 279 273 268 269 272 274 270 263 259 256 254 254 253 253 252 251 251 254 258 258 261 267 271 276 282 283 286 286 286 289 290 288 289 291 291 289 288 291 297 301 303 302 302
244 245 251 253 247 239 234 232 230 228 225 222 219 216 214 217 217 216 219 219 212 204 195 188 189 189 190 192 190 185 187 233 282 299 304 308 310 308 303 292 282 275 273 269 266 269 274 274 271 265 259 257 257 258 258 257 254 254 257 257 257 257 260 264 266 269 276 281 284 286 286 287 288 289 291 292 289 287 287 289 294 299 301 301 302